This is the latest recevied weather packets stored in our database for station/object W1CAT. If no packets are shown the sender has not sent any weather packets the latest 10 day(s).
| Time | Temp. | Humidity | Pressure | Rain* | Wind** | Luminosity | Snow |
|---|---|---|---|---|---|---|---|
| 1777247766 | 3.89° C | 76% | - | 0 mm | - | - | - |
| 1777247464 | 4.44° C | 79% | - | 0 mm | - | - | - |
| 1777247161 | 3.89° C | 82% | - | 0 mm | - | - | - |
| 1777246858 | 3.89° C | 80% | - | 0 mm | - | - | - |
| 1777246554 | 3.89° C | 80% | - | 0 mm | - | - | - |
| 1777246251 | 4.44° C | 76% | - | 0 mm | - | - | - |
| 1777245949 | 5° C | 74% | - | 0 mm | - | - | - |
| 1777245647 | 5.56° C | 74% | - | 0 mm | - | - | - |
| 1777245344 | 7.22° C | 65% | - | 0 mm | - | - | - |
| 1777245044 | 7.78° C | 56% | - | 0 mm | - | - | - |
| 1777244740 | 7.78° C | 54% | - | 0 mm | - | - | - |
| 1777244436 | 8.33° C | 55% | - | 0 mm | - | - | - |
| 1777244133 | 8.89° C | 49% | - | 0 mm | - | - | - |
| 1777243832 | 8.89° C | 51% | - | 0 mm | - | - | - |
| 1777243528 | 9.44° C | 48% | - | 0 mm | - | - | - |
| 1777243223 | 9.44° C | 44% | - | 0 mm | - | - | - |
| 1777242919 | 10° C | 45% | - | 0 mm | - | - | - |
| 1777242617 | 10° C | 46% | - | 0 mm | - | - | - |
| 1777242318 | 10.56° C | 45% | - | 0 mm | - | - | - |
| 1777242015 | 10.56° C | 47% | - | 0 mm | - | - | - |
| 1777241713 | 10.56° C | 46% | - | 0 mm | - | - | - |
| 1777241409 | 11.67° C | 48% | - | 0 mm | - | - | - |
| 1777241107 | 10° C | 48% | - | 0 mm | - | - | - |
| 1777240805 | 9.44° C | 50% | - | 0 mm | - | - | - |
| 1777240503 | 8.89° C | 52% | - | 0 mm | - | - | - |
* Rain latest hour (hover to see other rain measurements)
** Current wind speed in m/s (hover to see current wind gust speed)